Index of /20260414/WXO-DD/model_gdps/15km/12/036
Name Last modified Size Description
Parent Directory -
20260414T12Z_MSC_GDPS_AbsoluteVorticity_IsbL-0200_LatLon0.15_PT036H.grib2 2026-04-14 16:11 1.2M
20260414T12Z_MSC_GDPS_AbsoluteVorticity_IsbL-0250_LatLon0.15_PT036H.grib2 2026-04-14 16:11 1.3M
20260414T12Z_MSC_GDPS_AbsoluteVorticity_IsbL-0500_LatLon0.15_PT036H.grib2 2026-04-14 16:11 1.4M
20260414T12Z_MSC_GDPS_AbsoluteVorticity_IsbL-0700_LatLon0.15_PT036H.grib2 2026-04-14 16:11 1.3M
20260414T12Z_MSC_GDPS_AbsoluteVorticity_IsbL-0850_LatLon0.15_PT036H.grib2 2026-04-14 16:11 1.6M
20260414T12Z_MSC_GDPS_AirTemp-Max_AGL-2m_LatLon0.15_PT036H.grib2 2026-04-14 16:11 751K
20260414T12Z_MSC_GDPS_AirTemp-Min_AGL-2m_LatLon0.15_PT036H.grib2 2026-04-14 16:11 918K
20260414T12Z_MSC_GDPS_AirTemp_AGL-120m_LatLon0.15_PT036H.grib2 2026-04-14 16:11 914K
20260414T12Z_MSC_GDPS_AirTemp_AGL-2m_LatLon0.15_PT036H.grib2 2026-04-14 16:11 1.0M
20260414T12Z_MSC_GDPS_AirTemp_AGL-40m_LatLon0.15_PT036H.grib2 2026-04-14 16:11 937K
20260414T12Z_MSC_GDPS_AirTemp_AGL-80m_LatLon0.15_PT036H.grib2 2026-04-14 16:11 925K
20260414T12Z_MSC_GDPS_AirTemp_IsbL-0001_LatLon0.15_PT036H.grib2 2026-04-14 16:11 699K
20260414T12Z_MSC_GDPS_AirTemp_IsbL-0005_LatLon0.15_PT036H.grib2 2026-04-14 16:11 685K
20260414T12Z_MSC_GDPS_AirTemp_IsbL-0010_LatLon0.15_PT036H.grib2 2026-04-14 16:11 756K
20260414T12Z_MSC_GDPS_AirTemp_IsbL-0020_LatLon0.15_PT036H.grib2 2026-04-14 16:11 702K
20260414T12Z_MSC_GDPS_AirTemp_IsbL-0030_LatLon0.15_PT036H.grib2 2026-04-14 16:11 750K
20260414T12Z_MSC_GDPS_AirTemp_IsbL-0050_LatLon0.15_PT036H.grib2 2026-04-14 16:11 817K
20260414T12Z_MSC_GDPS_AirTemp_IsbL-0100_LatLon0.15_PT036H.grib2 2026-04-14 16:11 948K
20260414T12Z_MSC_GDPS_AirTemp_IsbL-0150_LatLon0.15_PT036H.grib2 2026-04-14 16:11 962K
20260414T12Z_MSC_GDPS_AirTemp_IsbL-0175_LatLon0.15_PT036H.grib2 2026-04-14 16:11 951K
20260414T12Z_MSC_GDPS_AirTemp_IsbL-0200_LatLon0.15_PT036H.grib2 2026-04-14 16:11 963K
20260414T12Z_MSC_GDPS_AirTemp_IsbL-0225_LatLon0.15_PT036H.grib2 2026-04-14 16:11 968K
20260414T12Z_MSC_GDPS_AirTemp_IsbL-0250_LatLon0.15_PT036H.grib2 2026-04-14 16:11 1.0M
20260414T12Z_MSC_GDPS_AirTemp_IsbL-0275_LatLon0.15_PT036H.grib2 2026-04-14 16:11 933K
20260414T12Z_MSC_GDPS_AirTemp_IsbL-0300_LatLon0.15_PT036H.grib2 2026-04-14 16:11 948K
20260414T12Z_MSC_GDPS_AirTemp_IsbL-0350_LatLon0.15_PT036H.grib2 2026-04-14 16:11 925K
20260414T12Z_MSC_GDPS_AirTemp_IsbL-0400_LatLon0.15_PT036H.grib2 2026-04-14 16:11 938K
20260414T12Z_MSC_GDPS_AirTemp_IsbL-0450_LatLon0.15_PT036H.grib2 2026-04-14 16:11 958K
20260414T12Z_MSC_GDPS_AirTemp_IsbL-0500_LatLon0.15_PT036H.grib2 2026-04-14 16:11 1.0M
20260414T12Z_MSC_GDPS_AirTemp_IsbL-0550_LatLon0.15_PT036H.grib2 2026-04-14 16:11 1.0M
20260414T12Z_MSC_GDPS_AirTemp_IsbL-0600_LatLon0.15_PT036H.grib2 2026-04-14 16:11 888K
20260414T12Z_MSC_GDPS_AirTemp_IsbL-0650_LatLon0.15_PT036H.grib2 2026-04-14 16:11 911K
20260414T12Z_MSC_GDPS_AirTemp_IsbL-0700_LatLon0.15_PT036H.grib2 2026-04-14 16:11 945K
20260414T12Z_MSC_GDPS_AirTemp_IsbL-0750_LatLon0.15_PT036H.grib2 2026-04-14 16:11 1.0M
20260414T12Z_MSC_GDPS_AirTemp_IsbL-0800_LatLon0.15_PT036H.grib2 2026-04-14 16:11 1.1M
20260414T12Z_MSC_GDPS_AirTemp_IsbL-0850_LatLon0.15_PT036H.grib2 2026-04-14 16:11 1.1M
20260414T12Z_MSC_GDPS_AirTemp_IsbL-0875_LatLon0.15_PT036H.grib2 2026-04-14 16:11 1.1M
20260414T12Z_MSC_GDPS_AirTemp_IsbL-0900_LatLon0.15_PT036H.grib2 2026-04-14 16:11 1.1M
20260414T12Z_MSC_GDPS_AirTemp_IsbL-0925_LatLon0.15_PT036H.grib2 2026-04-14 16:11 1.1M
20260414T12Z_MSC_GDPS_AirTemp_IsbL-0950_LatLon0.15_PT036H.grib2 2026-04-14 16:11 1.1M
20260414T12Z_MSC_GDPS_AirTemp_IsbL-0970_LatLon0.15_PT036H.grib2 2026-04-14 16:11 1.2M
20260414T12Z_MSC_GDPS_AirTemp_IsbL-0985_LatLon0.15_PT036H.grib2 2026-04-14 16:11 1.1M
20260414T12Z_MSC_GDPS_AirTemp_IsbL-1000_LatLon0.15_PT036H.grib2 2026-04-14 16:11 1.1M
20260414T12Z_MSC_GDPS_AirTemp_IsbL-1015_LatLon0.15_PT036H.grib2 2026-04-14 16:11 1.1M
20260414T12Z_MSC_GDPS_Albedo_Sfc_LatLon0.15_PT036H.grib2 2026-04-14 16:11 246K
20260414T12Z_MSC_GDPS_CAPE_Sfc_LatLon0.15_PT036H.grib2 2026-04-14 16:11 3.8M
20260414T12Z_MSC_GDPS_CIN_Sfc_LatLon0.15_PT036H.grib2 2026-04-14 16:11 2.8M
20260414T12Z_MSC_GDPS_CloudWater_EAtm_LatLon0.15_PT036H.grib2 2026-04-14 16:11 524K
20260414T12Z_MSC_GDPS_ConvectivePrecip-Accum_Sfc_LatLon0.15_PT036H.grib2 2026-04-14 16:11 2.5M
20260414T12Z_MSC_GDPS_DewPointDepression_AGL-2m_LatLon0.15_PT036H.grib2 2026-04-14 16:11 751K
20260414T12Z_MSC_GDPS_DewPointDepression_IsbL-0010_LatLon0.15_PT036H.grib2 2026-04-14 16:11 13K
20260414T12Z_MSC_GDPS_DewPointDepression_IsbL-0020_LatLon0.15_PT036H.grib2 2026-04-14 16:11 48K
20260414T12Z_MSC_GDPS_DewPointDepression_IsbL-0030_LatLon0.15_PT036H.grib2 2026-04-14 16:11 67K
20260414T12Z_MSC_GDPS_DewPointDepression_IsbL-0050_LatLon0.15_PT036H.grib2 2026-04-14 16:11 357K
20260414T12Z_MSC_GDPS_DewPointDepression_IsbL-0100_LatLon0.15_PT036H.grib2 2026-04-14 16:11 379K
20260414T12Z_MSC_GDPS_DewPointDepression_IsbL-0150_LatLon0.15_PT036H.grib2 2026-04-14 16:11 455K
20260414T12Z_MSC_GDPS_DewPointDepression_IsbL-0175_LatLon0.15_PT036H.grib2 2026-04-14 16:11 528K
20260414T12Z_MSC_GDPS_DewPointDepression_IsbL-0200_LatLon0.15_PT036H.grib2 2026-04-14 16:11 626K
20260414T12Z_MSC_GDPS_DewPointDepression_IsbL-0225_LatLon0.15_PT036H.grib2 2026-04-14 16:11 755K
20260414T12Z_MSC_GDPS_DewPointDepression_IsbL-0250_LatLon0.15_PT036H.grib2 2026-04-14 16:11 874K
20260414T12Z_MSC_GDPS_DewPointDepression_IsbL-0275_LatLon0.15_PT036H.grib2 2026-04-14 16:11 899K
20260414T12Z_MSC_GDPS_DewPointDepression_IsbL-0300_LatLon0.15_PT036H.grib2 2026-04-14 16:11 943K
20260414T12Z_MSC_GDPS_DewPointDepression_IsbL-0350_LatLon0.15_PT036H.grib2 2026-04-14 16:11 972K
20260414T12Z_MSC_GDPS_DewPointDepression_IsbL-0400_LatLon0.15_PT036H.grib2 2026-04-14 16:11 1.0M
20260414T12Z_MSC_GDPS_DewPointDepression_IsbL-0450_LatLon0.15_PT036H.grib2 2026-04-14 16:11 1.0M
20260414T12Z_MSC_GDPS_DewPointDepression_IsbL-0500_LatLon0.15_PT036H.grib2 2026-04-14 16:11 1.0M
20260414T12Z_MSC_GDPS_DewPointDepression_IsbL-0550_LatLon0.15_PT036H.grib2 2026-04-14 16:11 1.1M
20260414T12Z_MSC_GDPS_DewPointDepression_IsbL-0600_LatLon0.15_PT036H.grib2 2026-04-14 16:11 1.1M
20260414T12Z_MSC_GDPS_DewPointDepression_IsbL-0650_LatLon0.15_PT036H.grib2 2026-04-14 16:11 1.1M
20260414T12Z_MSC_GDPS_DewPointDepression_IsbL-0700_LatLon0.15_PT036H.grib2 2026-04-14 16:11 1.1M
20260414T12Z_MSC_GDPS_DewPointDepression_IsbL-0750_LatLon0.15_PT036H.grib2 2026-04-14 16:11 1.1M
20260414T12Z_MSC_GDPS_DewPointDepression_IsbL-0800_LatLon0.15_PT036H.grib2 2026-04-14 16:11 1.1M
20260414T12Z_MSC_GDPS_DewPointDepression_IsbL-0850_LatLon0.15_PT036H.grib2 2026-04-14 16:11 1.1M
20260414T12Z_MSC_GDPS_DewPointDepression_IsbL-0875_LatLon0.15_PT036H.grib2 2026-04-14 16:11 1.1M
20260414T12Z_MSC_GDPS_DewPointDepression_IsbL-0900_LatLon0.15_PT036H.grib2 2026-04-14 16:11 1.0M
20260414T12Z_MSC_GDPS_DewPointDepression_IsbL-0925_LatLon0.15_PT036H.grib2 2026-04-14 16:11 1.0M
20260414T12Z_MSC_GDPS_DewPointDepression_IsbL-0950_LatLon0.15_PT036H.grib2 2026-04-14 16:11 1.0M
20260414T12Z_MSC_GDPS_DewPointDepression_IsbL-0970_LatLon0.15_PT036H.grib2 2026-04-14 16:11 1.0M
20260414T12Z_MSC_GDPS_DewPointDepression_IsbL-0985_LatLon0.15_PT036H.grib2 2026-04-14 16:11 1.0M
20260414T12Z_MSC_GDPS_DewPointDepression_IsbL-1000_LatLon0.15_PT036H.grib2 2026-04-14 16:11 970K
20260414T12Z_MSC_GDPS_DewPointDepression_IsbL-1015_LatLon0.15_PT036H.grib2 2026-04-14 16:11 911K
20260414T12Z_MSC_GDPS_DewPoint_AGL-2m_LatLon0.15_PT036H.grib2 2026-04-14 16:11 607K
20260414T12Z_MSC_GDPS_DownwardLongwaveRadiationFlux-Accum_Sfc_LatLon0.15_PT036H.grib2 2026-04-14 16:11 796K
20260414T12Z_MSC_GDPS_DownwardShortwaveRadiationFlux-Accum_NTAtm_LatLon0.15_PT036H.grib2 2026-04-14 16:11 319K
20260414T12Z_MSC_GDPS_DownwardShortwaveRadiationFlux-Accum_Sfc_LatLon0.15_PT036H.grib2 2026-04-14 16:11 963K
20260414T12Z_MSC_GDPS_FreezingRain-Accum12h_Sfc_LatLon0.15_PT036H.grib2 2026-04-14 16:11 113K
20260414T12Z_MSC_GDPS_FreezingRain-Accum1h_Sfc_LatLon0.15_PT036H.grib2 2026-04-14 16:11 43K
20260414T12Z_MSC_GDPS_FreezingRain-Accum24h_Sfc_LatLon0.15_PT036H.grib2 2026-04-14 16:11 97K
20260414T12Z_MSC_GDPS_FreezingRain-Accum3h_Sfc_LatLon0.15_PT036H.grib2 2026-04-14 16:11 55K
20260414T12Z_MSC_GDPS_FreezingRain-Accum6h_Sfc_LatLon0.15_PT036H.grib2 2026-04-14 16:11 75K
20260414T12Z_MSC_GDPS_FreezingRain-Accum_Sfc_LatLon0.15_PT036H.grib2 2026-04-14 16:11 147K
20260414T12Z_MSC_GDPS_GeopotentialHeight_IsbL-0001_LatLon0.15_PT036H.grib2 2026-04-14 16:11 533K
20260414T12Z_MSC_GDPS_GeopotentialHeight_IsbL-0005_LatLon0.15_PT036H.grib2 2026-04-14 16:11 499K
20260414T12Z_MSC_GDPS_GeopotentialHeight_IsbL-0010_LatLon0.15_PT036H.grib2 2026-04-14 16:11 580K
20260414T12Z_MSC_GDPS_GeopotentialHeight_IsbL-0020_LatLon0.15_PT036H.grib2 2026-04-14 16:11 576K
20260414T12Z_MSC_GDPS_GeopotentialHeight_IsbL-0030_LatLon0.15_PT036H.grib2 2026-04-14 16:11 580K
20260414T12Z_MSC_GDPS_GeopotentialHeight_IsbL-0050_LatLon0.15_PT036H.grib2 2026-04-14 16:11 511K
20260414T12Z_MSC_GDPS_GeopotentialHeight_IsbL-0100_LatLon0.15_PT036H.grib2 2026-04-14 16:11 611K
20260414T12Z_MSC_GDPS_GeopotentialHeight_IsbL-0150_LatLon0.15_PT036H.grib2 2026-04-14 16:11 623K
20260414T12Z_MSC_GDPS_GeopotentialHeight_IsbL-0175_LatLon0.15_PT036H.grib2 2026-04-14 16:11 625K
20260414T12Z_MSC_GDPS_GeopotentialHeight_IsbL-0200_LatLon0.15_PT036H.grib2 2026-04-14 16:11 629K
20260414T12Z_MSC_GDPS_GeopotentialHeight_IsbL-0225_LatLon0.15_PT036H.grib2 2026-04-14 16:11 626K
20260414T12Z_MSC_GDPS_GeopotentialHeight_IsbL-0250_LatLon0.15_PT036H.grib2 2026-04-14 16:11 635K
20260414T12Z_MSC_GDPS_GeopotentialHeight_IsbL-0275_LatLon0.15_PT036H.grib2 2026-04-14 16:11 634K
20260414T12Z_MSC_GDPS_GeopotentialHeight_IsbL-0300_LatLon0.15_PT036H.grib2 2026-04-14 16:11 633K
20260414T12Z_MSC_GDPS_GeopotentialHeight_IsbL-0350_LatLon0.15_PT036H.grib2 2026-04-14 16:11 621K
20260414T12Z_MSC_GDPS_GeopotentialHeight_IsbL-0400_LatLon0.15_PT036H.grib2 2026-04-14 16:11 613K
20260414T12Z_MSC_GDPS_GeopotentialHeight_IsbL-0450_LatLon0.15_PT036H.grib2 2026-04-14 16:11 533K
20260414T12Z_MSC_GDPS_GeopotentialHeight_IsbL-0500_LatLon0.15_PT036H.grib2 2026-04-14 16:11 522K
20260414T12Z_MSC_GDPS_GeopotentialHeight_IsbL-0550_LatLon0.15_PT036H.grib2 2026-04-14 16:11 684K
20260414T12Z_MSC_GDPS_GeopotentialHeight_IsbL-0600_LatLon0.15_PT036H.grib2 2026-04-14 16:11 680K
20260414T12Z_MSC_GDPS_GeopotentialHeight_IsbL-0650_LatLon0.15_PT036H.grib2 2026-04-14 16:11 678K
20260414T12Z_MSC_GDPS_GeopotentialHeight_IsbL-0700_LatLon0.15_PT036H.grib2 2026-04-14 16:11 675K
20260414T12Z_MSC_GDPS_GeopotentialHeight_IsbL-0750_LatLon0.15_PT036H.grib2 2026-04-14 16:11 684K
20260414T12Z_MSC_GDPS_GeopotentialHeight_IsbL-0800_LatLon0.15_PT036H.grib2 2026-04-14 16:11 695K
20260414T12Z_MSC_GDPS_GeopotentialHeight_IsbL-0850_LatLon0.15_PT036H.grib2 2026-04-14 16:11 703K
20260414T12Z_MSC_GDPS_GeopotentialHeight_IsbL-0875_LatLon0.15_PT036H.grib2 2026-04-14 16:11 712K
20260414T12Z_MSC_GDPS_GeopotentialHeight_IsbL-0900_LatLon0.15_PT036H.grib2 2026-04-14 16:11 717K
20260414T12Z_MSC_GDPS_GeopotentialHeight_IsbL-0925_LatLon0.15_PT036H.grib2 2026-04-14 16:11 728K
20260414T12Z_MSC_GDPS_GeopotentialHeight_IsbL-0950_LatLon0.15_PT036H.grib2 2026-04-14 16:11 732K
20260414T12Z_MSC_GDPS_GeopotentialHeight_IsbL-0970_LatLon0.15_PT036H.grib2 2026-04-14 16:11 746K
20260414T12Z_MSC_GDPS_GeopotentialHeight_IsbL-0985_LatLon0.15_PT036H.grib2 2026-04-14 16:11 761K
20260414T12Z_MSC_GDPS_GeopotentialHeight_IsbL-1000_LatLon0.15_PT036H.grib2 2026-04-14 16:11 782K
20260414T12Z_MSC_GDPS_GeopotentialHeight_IsbL-1015_LatLon0.15_PT036H.grib2 2026-04-14 16:11 803K
20260414T12Z_MSC_GDPS_Humidex_Sfc_LatLon0.15_PT036H.grib2 2026-04-14 16:11 5.3M
20260414T12Z_MSC_GDPS_IcePellets-Accum12h_Sfc_LatLon0.15_PT036H.grib2 2026-04-14 16:11 31K
20260414T12Z_MSC_GDPS_IcePellets-Accum1h_Sfc_LatLon0.15_PT036H.grib2 2026-04-14 16:11 14K
20260414T12Z_MSC_GDPS_IcePellets-Accum24h_Sfc_LatLon0.15_PT036H.grib2 2026-04-14 16:11 38K
20260414T12Z_MSC_GDPS_IcePellets-Accum3h_Sfc_LatLon0.15_PT036H.grib2 2026-04-14 16:11 16K
20260414T12Z_MSC_GDPS_IcePellets-Accum6h_Sfc_LatLon0.15_PT036H.grib2 2026-04-14 16:11 22K
20260414T12Z_MSC_GDPS_IcePellets-Accum_Sfc_LatLon0.15_PT036H.grib2 2026-04-14 16:11 53K
20260414T12Z_MSC_GDPS_KIndex_Sfc_LatLon0.15_PT036H.grib2 2026-04-14 16:11 6.5M
20260414T12Z_MSC_GDPS_LatentHeatNetFlux_Sfc_LatLon0.15_PT036H.grib2 2026-04-14 16:11 633K
20260414T12Z_MSC_GDPS_LiftedIndex-MU-VT_IsbL-0500_LatLon0.15_PT036H.grib2 2026-04-14 16:11 5.4M
20260414T12Z_MSC_GDPS_NetLongwaveRadiationFlux-Accum_Sfc_LatLon0.15_PT036H.grib2 2026-04-14 16:11 1.0M
20260414T12Z_MSC_GDPS_NetShortwaveRadiationFlux-Accum_Sfc_LatLon0.15_PT036H.grib2 2026-04-14 16:11 944K
20260414T12Z_MSC_GDPS_O3MixingRatio_LatLon0.15_PT036H.grib2 2026-04-14 16:55 2.0M
20260414T12Z_MSC_GDPS_O3_EAtm_LatLon0.15_PT036H.grib2 2026-04-14 16:55 2.1M
20260414T12Z_MSC_GDPS_PlanetaryBoundaryLayerHeight_Sfc_LatLon0.15_PT036H.grib2 2026-04-14 16:11 2.4M
20260414T12Z_MSC_GDPS_Precip-Accum12h_Sfc_LatLon0.15_PT036H.grib2 2026-04-14 16:11 4.0M
20260414T12Z_MSC_GDPS_Precip-Accum1h_Sfc_LatLon0.15_PT036H.grib2 2026-04-14 16:11 3.2M
20260414T12Z_MSC_GDPS_Precip-Accum24h_Sfc_LatLon0.15_PT036H.grib2 2026-04-14 16:11 4.5M
20260414T12Z_MSC_GDPS_Precip-Accum3h_Sfc_LatLon0.15_PT036H.grib2 2026-04-14 16:11 3.4M
20260414T12Z_MSC_GDPS_Precip-Accum6h_Sfc_LatLon0.15_PT036H.grib2 2026-04-14 16:11 3.5M
20260414T12Z_MSC_GDPS_Precip-Accum_Sfc_LatLon0.15_PT036H.grib2 2026-04-14 16:11 4.6M
20260414T12Z_MSC_GDPS_PrecipRate_Sfc_LatLon0.15_PT036H.grib2 2026-04-14 16:11 3.0M
20260414T12Z_MSC_GDPS_PrecipType-Instant_Sfc_LatLon0.15_PT036H.grib2 2026-04-14 16:11 1.5M
20260414T12Z_MSC_GDPS_Pressure_MSL_LatLon0.15_PT036H.grib2 2026-04-14 16:11 818K
20260414T12Z_MSC_GDPS_Pressure_PVU-1.5_LatLon0.15_PT036H.grib2 2026-04-14 16:11 5.8M
20260414T12Z_MSC_GDPS_Pressure_PVU-1_LatLon0.15_PT036H.grib2 2026-04-14 16:11 6.0M
20260414T12Z_MSC_GDPS_Pressure_PVU-2_LatLon0.15_PT036H.grib2 2026-04-14 16:11 6.0M
20260414T12Z_MSC_GDPS_Pressure_Sfc_LatLon0.15_PT036H.grib2 2026-04-14 16:11 1.1M
20260414T12Z_MSC_GDPS_RadiativeTemp_Sfc_LatLon0.15_PT036H.grib2 2026-04-14 16:11 654K
20260414T12Z_MSC_GDPS_Rain-Accum12h_Sfc_LatLon0.15_PT036H.grib2 2026-04-14 16:11 2.7M
20260414T12Z_MSC_GDPS_Rain-Accum1h_Sfc_LatLon0.15_PT036H.grib2 2026-04-14 16:11 1.6M
20260414T12Z_MSC_GDPS_Rain-Accum24h_Sfc_LatLon0.15_PT036H.grib2 2026-04-14 16:11 3.1M
20260414T12Z_MSC_GDPS_Rain-Accum3h_Sfc_LatLon0.15_PT036H.grib2 2026-04-14 16:11 1.8M
20260414T12Z_MSC_GDPS_Rain-Accum6h_Sfc_LatLon0.15_PT036H.grib2 2026-04-14 16:11 2.2M
20260414T12Z_MSC_GDPS_Rain-Accum_Sfc_LatLon0.15_PT036H.grib2 2026-04-14 16:11 3.3M
20260414T12Z_MSC_GDPS_RelativeHumidity_AGL-2m_LatLon0.15_PT036H.grib2 2026-04-14 16:11 1.0M
20260414T12Z_MSC_GDPS_RelativeHumidity_IsbL-0010_LatLon0.15_PT036H.grib2 2026-04-14 16:11 266K
20260414T12Z_MSC_GDPS_RelativeHumidity_IsbL-0020_LatLon0.15_PT036H.grib2 2026-04-14 16:11 392K
20260414T12Z_MSC_GDPS_RelativeHumidity_IsbL-0030_LatLon0.15_PT036H.grib2 2026-04-14 16:11 528K
20260414T12Z_MSC_GDPS_RelativeHumidity_IsbL-0050_LatLon0.15_PT036H.grib2 2026-04-14 16:11 325K
20260414T12Z_MSC_GDPS_RelativeHumidity_IsbL-0100_LatLon0.15_PT036H.grib2 2026-04-14 16:11 499K
20260414T12Z_MSC_GDPS_RelativeHumidity_IsbL-0150_LatLon0.15_PT036H.grib2 2026-04-14 16:11 645K
20260414T12Z_MSC_GDPS_RelativeHumidity_IsbL-0175_LatLon0.15_PT036H.grib2 2026-04-14 16:11 768K
20260414T12Z_MSC_GDPS_RelativeHumidity_IsbL-0200_LatLon0.15_PT036H.grib2 2026-04-14 16:11 681K
20260414T12Z_MSC_GDPS_RelativeHumidity_IsbL-0225_LatLon0.15_PT036H.grib2 2026-04-14 16:11 771K
20260414T12Z_MSC_GDPS_RelativeHumidity_IsbL-0250_LatLon0.15_PT036H.grib2 2026-04-14 16:11 860K
20260414T12Z_MSC_GDPS_RelativeHumidity_IsbL-0275_LatLon0.15_PT036H.grib2 2026-04-14 16:11 887K
20260414T12Z_MSC_GDPS_RelativeHumidity_IsbL-0300_LatLon0.15_PT036H.grib2 2026-04-14 16:11 939K
20260414T12Z_MSC_GDPS_RelativeHumidity_IsbL-0350_LatLon0.15_PT036H.grib2 2026-04-14 16:11 965K
20260414T12Z_MSC_GDPS_RelativeHumidity_IsbL-0400_LatLon0.15_PT036H.grib2 2026-04-14 16:11 1.0M
20260414T12Z_MSC_GDPS_RelativeHumidity_IsbL-0450_LatLon0.15_PT036H.grib2 2026-04-14 16:11 1.0M
20260414T12Z_MSC_GDPS_RelativeHumidity_IsbL-0500_LatLon0.15_PT036H.grib2 2026-04-14 16:11 1.1M
20260414T12Z_MSC_GDPS_RelativeHumidity_IsbL-0550_LatLon0.15_PT036H.grib2 2026-04-14 16:11 1.1M
20260414T12Z_MSC_GDPS_RelativeHumidity_IsbL-0600_LatLon0.15_PT036H.grib2 2026-04-14 16:11 1.1M
20260414T12Z_MSC_GDPS_RelativeHumidity_IsbL-0650_LatLon0.15_PT036H.grib2 2026-04-14 16:11 1.1M
20260414T12Z_MSC_GDPS_RelativeHumidity_IsbL-0700_LatLon0.15_PT036H.grib2 2026-04-14 16:11 1.1M
20260414T12Z_MSC_GDPS_RelativeHumidity_IsbL-0750_LatLon0.15_PT036H.grib2 2026-04-14 16:11 1.2M
20260414T12Z_MSC_GDPS_RelativeHumidity_IsbL-0800_LatLon0.15_PT036H.grib2 2026-04-14 16:11 1.2M
20260414T12Z_MSC_GDPS_RelativeHumidity_IsbL-0850_LatLon0.15_PT036H.grib2 2026-04-14 16:11 1.3M
20260414T12Z_MSC_GDPS_RelativeHumidity_IsbL-0875_LatLon0.15_PT036H.grib2 2026-04-14 16:11 1.3M
20260414T12Z_MSC_GDPS_RelativeHumidity_IsbL-0900_LatLon0.15_PT036H.grib2 2026-04-14 16:11 1.2M
20260414T12Z_MSC_GDPS_RelativeHumidity_IsbL-0925_LatLon0.15_PT036H.grib2 2026-04-14 16:11 1.2M
20260414T12Z_MSC_GDPS_RelativeHumidity_IsbL-0950_LatLon0.15_PT036H.grib2 2026-04-14 16:11 1.2M
20260414T12Z_MSC_GDPS_RelativeHumidity_IsbL-0970_LatLon0.15_PT036H.grib2 2026-04-14 16:11 1.2M
20260414T12Z_MSC_GDPS_RelativeHumidity_IsbL-0985_LatLon0.15_PT036H.grib2 2026-04-14 16:11 1.2M
20260414T12Z_MSC_GDPS_RelativeHumidity_IsbL-1000_LatLon0.15_PT036H.grib2 2026-04-14 16:11 1.1M
20260414T12Z_MSC_GDPS_RelativeHumidity_IsbL-1015_LatLon0.15_PT036H.grib2 2026-04-14 16:11 1.0M
20260414T12Z_MSC_GDPS_RelativeVorticity_IsbL-0200_LatLon0.15_PT036H.grib2 2026-04-14 16:11 1.2M
20260414T12Z_MSC_GDPS_RelativeVorticity_IsbL-0250_LatLon0.15_PT036H.grib2 2026-04-14 16:11 1.3M
20260414T12Z_MSC_GDPS_RelativeVorticity_IsbL-0500_LatLon0.15_PT036H.grib2 2026-04-14 16:11 1.4M
20260414T12Z_MSC_GDPS_RelativeVorticity_IsbL-0700_LatLon0.15_PT036H.grib2 2026-04-14 16:11 1.3M
20260414T12Z_MSC_GDPS_RelativeVorticity_IsbL-0850_LatLon0.15_PT036H.grib2 2026-04-14 16:11 1.6M
20260414T12Z_MSC_GDPS_Runoff-Accum_Sfc_LatLon0.15_PT036H.grib2 2026-04-14 16:11 89K
20260414T12Z_MSC_GDPS_SensibleHeatNetFlux_Sfc_LatLon0.15_PT036H.grib2 2026-04-14 16:11 589K
20260414T12Z_MSC_GDPS_ShowalterIndex_IsbL-0500_LatLon0.15_PT036H.grib2 2026-04-14 16:11 6.2M
20260414T12Z_MSC_GDPS_Snow-Accum12h_Sfc_LatLon0.15_PT036H.grib2 2026-04-14 16:11 1.5M
20260414T12Z_MSC_GDPS_Snow-Accum1h_Sfc_LatLon0.15_PT036H.grib2 2026-04-14 16:11 1.0M
20260414T12Z_MSC_GDPS_Snow-Accum24h_Sfc_LatLon0.15_PT036H.grib2 2026-04-14 16:11 1.5M
20260414T12Z_MSC_GDPS_Snow-Accum3h_Sfc_LatLon0.15_PT036H.grib2 2026-04-14 16:11 898K
20260414T12Z_MSC_GDPS_Snow-Accum6h_Sfc_LatLon0.15_PT036H.grib2 2026-04-14 16:11 1.4M
20260414T12Z_MSC_GDPS_Snow-Accum_Sfc_LatLon0.15_PT036H.grib2 2026-04-14 16:11 1.8M
20260414T12Z_MSC_GDPS_SnowDensity_Sfc_LatLon0.15_PT036H.grib2 2026-04-14 16:11 264K
20260414T12Z_MSC_GDPS_SnowDepth_Sfc_LatLon0.15_PT036H.grib2 2026-04-14 16:11 1.8M
20260414T12Z_MSC_GDPS_SoilTemp_DBS-0to10cm_LatLon0.15_PT036H.grib2 2026-04-14 16:11 502K
20260414T12Z_MSC_GDPS_SoilTemp_Sfc_LatLon0.15_PT036H.grib2 2026-04-14 16:11 577K
20260414T12Z_MSC_GDPS_SoilVolumetricIceContent_Sfc_LatLon0.15_PT036H.grib2 2026-04-14 16:11 225K
20260414T12Z_MSC_GDPS_SoilVolumetricWaterContent_DBS-0to10cm_LatLon0.15_PT036H.grib2 2026-04-14 16:11 552K
20260414T12Z_MSC_GDPS_SoilVolumetricWaterContent_DBS-0to1cm_LatLon0.15_PT036H.grib2 2026-04-14 16:11 650K
20260414T12Z_MSC_GDPS_SpecificHumidity_AGL-120m_LatLon0.15_PT036H.grib2 2026-04-14 16:11 1.1M
20260414T12Z_MSC_GDPS_SpecificHumidity_AGL-2m_LatLon0.15_PT036H.grib2 2026-04-14 16:11 1.2M
20260414T12Z_MSC_GDPS_SpecificHumidity_AGL-40m_LatLon0.15_PT036H.grib2 2026-04-14 16:11 1.1M
20260414T12Z_MSC_GDPS_SpecificHumidity_AGL-80m_LatLon0.15_PT036H.grib2 2026-04-14 16:11 1.1M
20260414T12Z_MSC_GDPS_SpecificHumidity_IsbL-0001_LatLon0.15_PT036H.grib2 2026-04-14 16:11 1.2M
20260414T12Z_MSC_GDPS_SpecificHumidity_IsbL-0005_LatLon0.15_PT036H.grib2 2026-04-14 16:11 1.2M
20260414T12Z_MSC_GDPS_SpecificHumidity_IsbL-0010_LatLon0.15_PT036H.grib2 2026-04-14 16:11 1.3M
20260414T12Z_MSC_GDPS_SpecificHumidity_IsbL-0020_LatLon0.15_PT036H.grib2 2026-04-14 16:11 1.4M
20260414T12Z_MSC_GDPS_SpecificHumidity_IsbL-0030_LatLon0.15_PT036H.grib2 2026-04-14 16:11 1.4M
20260414T12Z_MSC_GDPS_SpecificHumidity_IsbL-0050_LatLon0.15_PT036H.grib2 2026-04-14 16:11 1.4M
20260414T12Z_MSC_GDPS_SpecificHumidity_IsbL-0100_LatLon0.15_PT036H.grib2 2026-04-14 16:11 1.3M
20260414T12Z_MSC_GDPS_SpecificHumidity_IsbL-0150_LatLon0.15_PT036H.grib2 2026-04-14 16:11 1.3M
20260414T12Z_MSC_GDPS_SpecificHumidity_IsbL-0175_LatLon0.15_PT036H.grib2 2026-04-14 16:11 1.3M
20260414T12Z_MSC_GDPS_SpecificHumidity_IsbL-0200_LatLon0.15_PT036H.grib2 2026-04-14 16:11 1.0M
20260414T12Z_MSC_GDPS_SpecificHumidity_IsbL-0225_LatLon0.15_PT036H.grib2 2026-04-14 16:11 1.2M
20260414T12Z_MSC_GDPS_SpecificHumidity_IsbL-0250_LatLon0.15_PT036H.grib2 2026-04-14 16:11 1.2M
20260414T12Z_MSC_GDPS_SpecificHumidity_IsbL-0275_LatLon0.15_PT036H.grib2 2026-04-14 16:11 1.1M
20260414T12Z_MSC_GDPS_SpecificHumidity_IsbL-0300_LatLon0.15_PT036H.grib2 2026-04-14 16:11 1.2M
20260414T12Z_MSC_GDPS_SpecificHumidity_IsbL-0350_LatLon0.15_PT036H.grib2 2026-04-14 16:11 1.2M
20260414T12Z_MSC_GDPS_SpecificHumidity_IsbL-0400_LatLon0.15_PT036H.grib2 2026-04-14 16:11 1.4M
20260414T12Z_MSC_GDPS_SpecificHumidity_IsbL-0450_LatLon0.15_PT036H.grib2 2026-04-14 16:11 1.3M
20260414T12Z_MSC_GDPS_SpecificHumidity_IsbL-0500_LatLon0.15_PT036H.grib2 2026-04-14 16:11 1.5M
20260414T12Z_MSC_GDPS_SpecificHumidity_IsbL-0550_LatLon0.15_PT036H.grib2 2026-04-14 16:11 1.6M
20260414T12Z_MSC_GDPS_SpecificHumidity_IsbL-0600_LatLon0.15_PT036H.grib2 2026-04-14 16:11 1.4M
20260414T12Z_MSC_GDPS_SpecificHumidity_IsbL-0650_LatLon0.15_PT036H.grib2 2026-04-14 16:11 1.5M
20260414T12Z_MSC_GDPS_SpecificHumidity_IsbL-0700_LatLon0.15_PT036H.grib2 2026-04-14 16:11 1.6M
20260414T12Z_MSC_GDPS_SpecificHumidity_IsbL-0750_LatLon0.15_PT036H.grib2 2026-04-14 16:11 1.7M
20260414T12Z_MSC_GDPS_SpecificHumidity_IsbL-0800_LatLon0.15_PT036H.grib2 2026-04-14 16:11 1.8M
20260414T12Z_MSC_GDPS_SpecificHumidity_IsbL-0850_LatLon0.15_PT036H.grib2 2026-04-14 16:11 1.9M
20260414T12Z_MSC_GDPS_SpecificHumidity_IsbL-0875_LatLon0.15_PT036H.grib2 2026-04-14 16:12 1.9M
20260414T12Z_MSC_GDPS_SpecificHumidity_IsbL-0900_LatLon0.15_PT036H.grib2 2026-04-14 16:11 1.9M
20260414T12Z_MSC_GDPS_SpecificHumidity_IsbL-0925_LatLon0.15_PT036H.grib2 2026-04-14 16:11 1.6M
20260414T12Z_MSC_GDPS_SpecificHumidity_IsbL-0950_LatLon0.15_PT036H.grib2 2026-04-14 16:11 1.5M
20260414T12Z_MSC_GDPS_SpecificHumidity_IsbL-0970_LatLon0.15_PT036H.grib2 2026-04-14 16:11 1.5M
20260414T12Z_MSC_GDPS_SpecificHumidity_IsbL-0985_LatLon0.15_PT036H.grib2 2026-04-14 16:11 1.5M
20260414T12Z_MSC_GDPS_SpecificHumidity_IsbL-1000_LatLon0.15_PT036H.grib2 2026-04-14 16:12 1.5M
20260414T12Z_MSC_GDPS_SpecificHumidity_IsbL-1015_LatLon0.15_PT036H.grib2 2026-04-14 16:11 1.4M
20260414T12Z_MSC_GDPS_SpecificHumidity_Sfc_LatLon0.15_PT036H.grib2 2026-04-14 16:11 616K
20260414T12Z_MSC_GDPS_Thickness_IsbL-0850to0700_LatLon0.15_PT036H.grib2 2026-04-14 16:11 465K
20260414T12Z_MSC_GDPS_Thickness_IsbL-1000to0500_LatLon0.15_PT036H.grib2 2026-04-14 16:11 369K
20260414T12Z_MSC_GDPS_Thickness_IsbL-1000to0850_LatLon0.15_PT036H.grib2 2026-04-14 16:11 487K
20260414T12Z_MSC_GDPS_TotalCloudCover_Sfc_LatLon0.15_PT036H.grib2 2026-04-14 16:11 833K
20260414T12Z_MSC_GDPS_TotalTotalsIndex_Sfc_LatLon0.15_PT036H.grib2 2026-04-14 16:11 6.2M
20260414T12Z_MSC_GDPS_UVIndex-ClearSky_Sfc_LatLon0.15_PT036H.grib2 2026-04-14 16:55 1.0M
20260414T12Z_MSC_GDPS_UVIndex_Sfc_LatLon0.15_PT036H.grib2 2026-04-14 16:55 1.5M
20260414T12Z_MSC_GDPS_UpwardLongwaveRadiationFlux_NTAtm_LatLon0.15_PT036H.grib2 2026-04-14 16:12 828K
20260414T12Z_MSC_GDPS_VerticalVelocity_IsbL-0200_LatLon0.15_PT036H.grib2 2026-04-14 16:11 1.1M
20260414T12Z_MSC_GDPS_VerticalVelocity_IsbL-0250_LatLon0.15_PT036H.grib2 2026-04-14 16:11 1.0M
20260414T12Z_MSC_GDPS_VerticalVelocity_IsbL-0500_LatLon0.15_PT036H.grib2 2026-04-14 16:11 1.3M
20260414T12Z_MSC_GDPS_VerticalVelocity_IsbL-0600_LatLon0.15_PT036H.grib2 2026-04-14 16:11 1.0M
20260414T12Z_MSC_GDPS_VerticalVelocity_IsbL-0700_LatLon0.15_PT036H.grib2 2026-04-14 16:11 1.1M
20260414T12Z_MSC_GDPS_VerticalVelocity_IsbL-0850_LatLon0.15_PT036H.grib2 2026-04-14 16:11 1.6M
20260414T12Z_MSC_GDPS_WindChill_Sfc_LatLon0.15_PT036H.grib2 2026-04-14 16:11 5.4M
20260414T12Z_MSC_GDPS_WindDir_AGL-10m_LatLon0.15_PT036H.grib2 2026-04-14 16:11 1.3M
20260414T12Z_MSC_GDPS_WindDir_AGL-120m_LatLon0.15_PT036H.grib2 2026-04-14 16:11 1.4M
20260414T12Z_MSC_GDPS_WindDir_AGL-40m_LatLon0.15_PT036H.grib2 2026-04-14 16:11 1.4M
20260414T12Z_MSC_GDPS_WindDir_AGL-80m_LatLon0.15_PT036H.grib2 2026-04-14 16:11 1.4M
20260414T12Z_MSC_GDPS_WindDir_IsbL-0001_LatLon0.15_PT036H.grib2 2026-04-14 16:11 631K
20260414T12Z_MSC_GDPS_WindDir_IsbL-0005_LatLon0.15_PT036H.grib2 2026-04-14 16:11 803K
20260414T12Z_MSC_GDPS_WindDir_IsbL-0010_LatLon0.15_PT036H.grib2 2026-04-14 16:11 863K
20260414T12Z_MSC_GDPS_WindDir_IsbL-0020_LatLon0.15_PT036H.grib2 2026-04-14 16:12 919K
20260414T12Z_MSC_GDPS_WindDir_IsbL-0030_LatLon0.15_PT036H.grib2 2026-04-14 16:11 888K
20260414T12Z_MSC_GDPS_WindDir_IsbL-0050_LatLon0.15_PT036H.grib2 2026-04-14 16:11 949K
20260414T12Z_MSC_GDPS_WindDir_IsbL-0100_LatLon0.15_PT036H.grib2 2026-04-14 16:11 1.0M
20260414T12Z_MSC_GDPS_WindDir_IsbL-0150_LatLon0.15_PT036H.grib2 2026-04-14 16:11 1.0M
20260414T12Z_MSC_GDPS_WindDir_IsbL-0175_LatLon0.15_PT036H.grib2 2026-04-14 16:11 1.0M
20260414T12Z_MSC_GDPS_WindDir_IsbL-0200_LatLon0.15_PT036H.grib2 2026-04-14 16:11 1.1M
20260414T12Z_MSC_GDPS_WindDir_IsbL-0225_LatLon0.15_PT036H.grib2 2026-04-14 16:11 1.1M
20260414T12Z_MSC_GDPS_WindDir_IsbL-0250_LatLon0.15_PT036H.grib2 2026-04-14 16:11 1.1M
20260414T12Z_MSC_GDPS_WindDir_IsbL-0275_LatLon0.15_PT036H.grib2 2026-04-14 16:11 1.2M
20260414T12Z_MSC_GDPS_WindDir_IsbL-0300_LatLon0.15_PT036H.grib2 2026-04-14 16:11 1.2M
20260414T12Z_MSC_GDPS_WindDir_IsbL-0350_LatLon0.15_PT036H.grib2 2026-04-14 16:12 1.2M
20260414T12Z_MSC_GDPS_WindDir_IsbL-0400_LatLon0.15_PT036H.grib2 2026-04-14 16:11 1.3M
20260414T12Z_MSC_GDPS_WindDir_IsbL-0450_LatLon0.15_PT036H.grib2 2026-04-14 16:12 1.3M
20260414T12Z_MSC_GDPS_WindDir_IsbL-0500_LatLon0.15_PT036H.grib2 2026-04-14 16:11 1.4M
20260414T12Z_MSC_GDPS_WindDir_IsbL-0550_LatLon0.15_PT036H.grib2 2026-04-14 16:12 1.4M
20260414T12Z_MSC_GDPS_WindDir_IsbL-0600_LatLon0.15_PT036H.grib2 2026-04-14 16:11 1.5M
20260414T12Z_MSC_GDPS_WindDir_IsbL-0650_LatLon0.15_PT036H.grib2 2026-04-14 16:11 1.5M
20260414T12Z_MSC_GDPS_WindDir_IsbL-0700_LatLon0.15_PT036H.grib2 2026-04-14 16:11 1.6M
20260414T12Z_MSC_GDPS_WindDir_IsbL-0750_LatLon0.15_PT036H.grib2 2026-04-14 16:11 1.7M
20260414T12Z_MSC_GDPS_WindDir_IsbL-0800_LatLon0.15_PT036H.grib2 2026-04-14 16:11 1.8M
20260414T12Z_MSC_GDPS_WindDir_IsbL-0850_LatLon0.15_PT036H.grib2 2026-04-14 16:11 1.9M
20260414T12Z_MSC_GDPS_WindDir_IsbL-0875_LatLon0.15_PT036H.grib2 2026-04-14 16:11 2.0M
20260414T12Z_MSC_GDPS_WindDir_IsbL-0900_LatLon0.15_PT036H.grib2 2026-04-14 16:11 2.0M
20260414T12Z_MSC_GDPS_WindDir_IsbL-0925_LatLon0.15_PT036H.grib2 2026-04-14 16:11 2.0M
20260414T12Z_MSC_GDPS_WindDir_IsbL-0950_LatLon0.15_PT036H.grib2 2026-04-14 16:11 2.0M
20260414T12Z_MSC_GDPS_WindDir_IsbL-0970_LatLon0.15_PT036H.grib2 2026-04-14 16:11 2.0M
20260414T12Z_MSC_GDPS_WindDir_IsbL-0985_LatLon0.15_PT036H.grib2 2026-04-14 16:11 2.0M
20260414T12Z_MSC_GDPS_WindDir_IsbL-1000_LatLon0.15_PT036H.grib2 2026-04-14 16:11 2.1M
20260414T12Z_MSC_GDPS_WindDir_IsbL-1015_LatLon0.15_PT036H.grib2 2026-04-14 16:11 2.1M
20260414T12Z_MSC_GDPS_WindGust-Max_AGL-10m_LatLon0.15_PT036H.grib2 2026-04-14 16:11 2.2M
20260414T12Z_MSC_GDPS_WindGust-Min_AGL-10m_LatLon0.15_PT036H.grib2 2026-04-14 16:11 2.2M
20260414T12Z_MSC_GDPS_WindGust_AGL-10m_LatLon0.15_PT036H.grib2 2026-04-14 16:11 2.2M
20260414T12Z_MSC_GDPS_WindSpeed_AGL-10m_LatLon0.15_PT036H.grib2 2026-04-14 16:11 1.1M
20260414T12Z_MSC_GDPS_WindSpeed_AGL-120m_LatLon0.15_PT036H.grib2 2026-04-14 16:12 1.2M
20260414T12Z_MSC_GDPS_WindSpeed_AGL-40m_LatLon0.15_PT036H.grib2 2026-04-14 16:12 1.2M
20260414T12Z_MSC_GDPS_WindSpeed_AGL-80m_LatLon0.15_PT036H.grib2 2026-04-14 16:12 1.2M
20260414T12Z_MSC_GDPS_WindSpeed_IsbL-0001_LatLon0.15_PT036H.grib2 2026-04-14 16:12 635K
20260414T12Z_MSC_GDPS_WindSpeed_IsbL-0005_LatLon0.15_PT036H.grib2 2026-04-14 16:12 692K
20260414T12Z_MSC_GDPS_WindSpeed_IsbL-0010_LatLon0.15_PT036H.grib2 2026-04-14 16:12 630K
20260414T12Z_MSC_GDPS_WindSpeed_IsbL-0020_LatLon0.15_PT036H.grib2 2026-04-14 16:12 674K
20260414T12Z_MSC_GDPS_WindSpeed_IsbL-0030_LatLon0.15_PT036H.grib2 2026-04-14 16:12 667K
20260414T12Z_MSC_GDPS_WindSpeed_IsbL-0050_LatLon0.15_PT036H.grib2 2026-04-14 16:12 916K
20260414T12Z_MSC_GDPS_WindSpeed_IsbL-0100_LatLon0.15_PT036H.grib2 2026-04-14 16:12 1.1M
20260414T12Z_MSC_GDPS_WindSpeed_IsbL-0150_LatLon0.15_PT036H.grib2 2026-04-14 16:12 930K
20260414T12Z_MSC_GDPS_WindSpeed_IsbL-0175_LatLon0.15_PT036H.grib2 2026-04-14 16:12 1.0M
20260414T12Z_MSC_GDPS_WindSpeed_IsbL-0200_LatLon0.15_PT036H.grib2 2026-04-14 16:11 1.0M
20260414T12Z_MSC_GDPS_WindSpeed_IsbL-0225_LatLon0.15_PT036H.grib2 2026-04-14 16:11 1.1M
20260414T12Z_MSC_GDPS_WindSpeed_IsbL-0250_LatLon0.15_PT036H.grib2 2026-04-14 16:11 1.1M
20260414T12Z_MSC_GDPS_WindSpeed_IsbL-0275_LatLon0.15_PT036H.grib2 2026-04-14 16:11 1.1M
20260414T12Z_MSC_GDPS_WindSpeed_IsbL-0300_LatLon0.15_PT036H.grib2 2026-04-14 16:11 1.1M
20260414T12Z_MSC_GDPS_WindSpeed_IsbL-0350_LatLon0.15_PT036H.grib2 2026-04-14 16:11 1.1M
20260414T12Z_MSC_GDPS_WindSpeed_IsbL-0400_LatLon0.15_PT036H.grib2 2026-04-14 16:12 1.1M
20260414T12Z_MSC_GDPS_WindSpeed_IsbL-0450_LatLon0.15_PT036H.grib2 2026-04-14 16:11 1.1M
20260414T12Z_MSC_GDPS_WindSpeed_IsbL-0500_LatLon0.15_PT036H.grib2 2026-04-14 16:11 1.1M
20260414T12Z_MSC_GDPS_WindSpeed_IsbL-0550_LatLon0.15_PT036H.grib2 2026-04-14 16:12 1.1M
20260414T12Z_MSC_GDPS_WindSpeed_IsbL-0600_LatLon0.15_PT036H.grib2 2026-04-14 16:11 1.4M
20260414T12Z_MSC_GDPS_WindSpeed_IsbL-0650_LatLon0.15_PT036H.grib2 2026-04-14 16:11 1.4M
20260414T12Z_MSC_GDPS_WindSpeed_IsbL-0700_LatLon0.15_PT036H.grib2 2026-04-14 16:11 1.5M
20260414T12Z_MSC_GDPS_WindSpeed_IsbL-0750_LatLon0.15_PT036H.grib2 2026-04-14 16:12 1.5M
20260414T12Z_MSC_GDPS_WindSpeed_IsbL-0800_LatLon0.15_PT036H.grib2 2026-04-14 16:12 1.6M
20260414T12Z_MSC_GDPS_WindSpeed_IsbL-0850_LatLon0.15_PT036H.grib2 2026-04-14 16:11 1.7M
20260414T12Z_MSC_GDPS_WindSpeed_IsbL-0875_LatLon0.15_PT036H.grib2 2026-04-14 16:11 1.8M
20260414T12Z_MSC_GDPS_WindSpeed_IsbL-0900_LatLon0.15_PT036H.grib2 2026-04-14 16:11 1.8M
20260414T12Z_MSC_GDPS_WindSpeed_IsbL-0925_LatLon0.15_PT036H.grib2 2026-04-14 16:11 1.9M
20260414T12Z_MSC_GDPS_WindSpeed_IsbL-0950_LatLon0.15_PT036H.grib2 2026-04-14 16:11 1.9M
20260414T12Z_MSC_GDPS_WindSpeed_IsbL-0970_LatLon0.15_PT036H.grib2 2026-04-14 16:11 1.9M
20260414T12Z_MSC_GDPS_WindSpeed_IsbL-0985_LatLon0.15_PT036H.grib2 2026-04-14 16:11 1.9M
20260414T12Z_MSC_GDPS_WindSpeed_IsbL-1000_LatLon0.15_PT036H.grib2 2026-04-14 16:11 1.9M
20260414T12Z_MSC_GDPS_WindSpeed_IsbL-1015_LatLon0.15_PT036H.grib2 2026-04-14 16:11 1.8M
20260414T12Z_MSC_GDPS_WindU_AGL-10m_LatLon0.15_PT036H.grib2 2026-04-14 16:12 1.6M
20260414T12Z_MSC_GDPS_WindU_AGL-120m_LatLon0.15_PT036H.grib2 2026-04-14 16:11 1.0M
20260414T12Z_MSC_GDPS_WindU_AGL-40m_LatLon0.15_PT036H.grib2 2026-04-14 16:12 970K
20260414T12Z_MSC_GDPS_WindU_AGL-80m_LatLon0.15_PT036H.grib2 2026-04-14 16:11 1.0M
20260414T12Z_MSC_GDPS_WindU_IsbL-0001_LatLon0.15_PT036H.grib2 2026-04-14 16:11 496K
20260414T12Z_MSC_GDPS_WindU_IsbL-0005_LatLon0.15_PT036H.grib2 2026-04-14 16:11 689K
20260414T12Z_MSC_GDPS_WindU_IsbL-0010_LatLon0.15_PT036H.grib2 2026-04-14 16:11 700K
20260414T12Z_MSC_GDPS_WindU_IsbL-0020_LatLon0.15_PT036H.grib2 2026-04-14 16:11 739K
20260414T12Z_MSC_GDPS_WindU_IsbL-0030_LatLon0.15_PT036H.grib2 2026-04-14 16:11 739K
20260414T12Z_MSC_GDPS_WindU_IsbL-0050_LatLon0.15_PT036H.grib2 2026-04-14 16:11 707K
20260414T12Z_MSC_GDPS_WindU_IsbL-0100_LatLon0.15_PT036H.grib2 2026-04-14 16:11 866K
20260414T12Z_MSC_GDPS_WindU_IsbL-0150_LatLon0.15_PT036H.grib2 2026-04-14 16:11 1.0M
20260414T12Z_MSC_GDPS_WindU_IsbL-0175_LatLon0.15_PT036H.grib2 2026-04-14 16:11 1.0M
20260414T12Z_MSC_GDPS_WindU_IsbL-0200_LatLon0.15_PT036H.grib2 2026-04-14 16:11 1.0M
20260414T12Z_MSC_GDPS_WindU_IsbL-0225_LatLon0.15_PT036H.grib2 2026-04-14 16:12 849K
20260414T12Z_MSC_GDPS_WindU_IsbL-0250_LatLon0.15_PT036H.grib2 2026-04-14 16:12 851K
20260414T12Z_MSC_GDPS_WindU_IsbL-0275_LatLon0.15_PT036H.grib2 2026-04-14 16:12 1.1M
20260414T12Z_MSC_GDPS_WindU_IsbL-0300_LatLon0.15_PT036H.grib2 2026-04-14 16:12 1.1M
20260414T12Z_MSC_GDPS_WindU_IsbL-0350_LatLon0.15_PT036H.grib2 2026-04-14 16:12 887K
20260414T12Z_MSC_GDPS_WindU_IsbL-0400_LatLon0.15_PT036H.grib2 2026-04-14 16:12 1.1M
20260414T12Z_MSC_GDPS_WindU_IsbL-0450_LatLon0.15_PT036H.grib2 2026-04-14 16:12 1.1M
20260414T12Z_MSC_GDPS_WindU_IsbL-0500_LatLon0.15_PT036H.grib2 2026-04-14 16:11 1.1M
20260414T12Z_MSC_GDPS_WindU_IsbL-0550_LatLon0.15_PT036H.grib2 2026-04-14 16:11 1.1M
20260414T12Z_MSC_GDPS_WindU_IsbL-0600_LatLon0.15_PT036H.grib2 2026-04-14 16:11 1.1M
20260414T12Z_MSC_GDPS_WindU_IsbL-0650_LatLon0.15_PT036H.grib2 2026-04-14 16:11 1.2M
20260414T12Z_MSC_GDPS_WindU_IsbL-0700_LatLon0.15_PT036H.grib2 2026-04-14 16:11 1.2M
20260414T12Z_MSC_GDPS_WindU_IsbL-0750_LatLon0.15_PT036H.grib2 2026-04-14 16:11 1.3M
20260414T12Z_MSC_GDPS_WindU_IsbL-0800_LatLon0.15_PT036H.grib2 2026-04-14 16:11 1.3M
20260414T12Z_MSC_GDPS_WindU_IsbL-0850_LatLon0.15_PT036H.grib2 2026-04-14 16:12 1.4M
20260414T12Z_MSC_GDPS_WindU_IsbL-0875_LatLon0.15_PT036H.grib2 2026-04-14 16:11 1.4M
20260414T12Z_MSC_GDPS_WindU_IsbL-0900_LatLon0.15_PT036H.grib2 2026-04-14 16:11 1.5M
20260414T12Z_MSC_GDPS_WindU_IsbL-0925_LatLon0.15_PT036H.grib2 2026-04-14 16:11 1.5M
20260414T12Z_MSC_GDPS_WindU_IsbL-0950_LatLon0.15_PT036H.grib2 2026-04-14 16:11 1.4M
20260414T12Z_MSC_GDPS_WindU_IsbL-0970_LatLon0.15_PT036H.grib2 2026-04-14 16:12 1.4M
20260414T12Z_MSC_GDPS_WindU_IsbL-0985_LatLon0.15_PT036H.grib2 2026-04-14 16:12 1.4M
20260414T12Z_MSC_GDPS_WindU_IsbL-1000_LatLon0.15_PT036H.grib2 2026-04-14 16:12 1.7M
20260414T12Z_MSC_GDPS_WindU_IsbL-1015_LatLon0.15_PT036H.grib2 2026-04-14 16:12 1.6M
20260414T12Z_MSC_GDPS_WindV_AGL-10m_LatLon0.15_PT036H.grib2 2026-04-14 16:11 1.3M
20260414T12Z_MSC_GDPS_WindV_AGL-120m_LatLon0.15_PT036H.grib2 2026-04-14 16:12 1.0M
20260414T12Z_MSC_GDPS_WindV_AGL-40m_LatLon0.15_PT036H.grib2 2026-04-14 16:11 971K
20260414T12Z_MSC_GDPS_WindV_AGL-80m_LatLon0.15_PT036H.grib2 2026-04-14 16:11 1.0M
20260414T12Z_MSC_GDPS_WindV_IsbL-0001_LatLon0.15_PT036H.grib2 2026-04-14 16:11 545K
20260414T12Z_MSC_GDPS_WindV_IsbL-0005_LatLon0.15_PT036H.grib2 2026-04-14 16:11 778K
20260414T12Z_MSC_GDPS_WindV_IsbL-0010_LatLon0.15_PT036H.grib2 2026-04-14 16:11 807K
20260414T12Z_MSC_GDPS_WindV_IsbL-0020_LatLon0.15_PT036H.grib2 2026-04-14 16:11 861K
20260414T12Z_MSC_GDPS_WindV_IsbL-0030_LatLon0.15_PT036H.grib2 2026-04-14 16:12 859K
20260414T12Z_MSC_GDPS_WindV_IsbL-0050_LatLon0.15_PT036H.grib2 2026-04-14 16:11 911K
20260414T12Z_MSC_GDPS_WindV_IsbL-0100_LatLon0.15_PT036H.grib2 2026-04-14 16:11 854K
20260414T12Z_MSC_GDPS_WindV_IsbL-0150_LatLon0.15_PT036H.grib2 2026-04-14 16:12 1.0M
20260414T12Z_MSC_GDPS_WindV_IsbL-0175_LatLon0.15_PT036H.grib2 2026-04-14 16:12 1.0M
20260414T12Z_MSC_GDPS_WindV_IsbL-0200_LatLon0.15_PT036H.grib2 2026-04-14 16:11 1.0M
20260414T12Z_MSC_GDPS_WindV_IsbL-0225_LatLon0.15_PT036H.grib2 2026-04-14 16:11 845K
20260414T12Z_MSC_GDPS_WindV_IsbL-0250_LatLon0.15_PT036H.grib2 2026-04-14 16:12 904K
20260414T12Z_MSC_GDPS_WindV_IsbL-0275_LatLon0.15_PT036H.grib2 2026-04-14 16:11 930K
20260414T12Z_MSC_GDPS_WindV_IsbL-0300_LatLon0.15_PT036H.grib2 2026-04-14 16:11 922K
20260414T12Z_MSC_GDPS_WindV_IsbL-0350_LatLon0.15_PT036H.grib2 2026-04-14 16:11 935K
20260414T12Z_MSC_GDPS_WindV_IsbL-0400_LatLon0.15_PT036H.grib2 2026-04-14 16:11 875K
20260414T12Z_MSC_GDPS_WindV_IsbL-0450_LatLon0.15_PT036H.grib2 2026-04-14 16:11 875K
20260414T12Z_MSC_GDPS_WindV_IsbL-0500_LatLon0.15_PT036H.grib2 2026-04-14 16:12 1.1M
20260414T12Z_MSC_GDPS_WindV_IsbL-0550_LatLon0.15_PT036H.grib2 2026-04-14 16:12 1.1M
20260414T12Z_MSC_GDPS_WindV_IsbL-0600_LatLon0.15_PT036H.grib2 2026-04-14 16:11 1.1M
20260414T12Z_MSC_GDPS_WindV_IsbL-0650_LatLon0.15_PT036H.grib2 2026-04-14 16:11 1.2M
20260414T12Z_MSC_GDPS_WindV_IsbL-0700_LatLon0.15_PT036H.grib2 2026-04-14 16:11 1.2M
20260414T12Z_MSC_GDPS_WindV_IsbL-0750_LatLon0.15_PT036H.grib2 2026-04-14 16:12 1.2M
20260414T12Z_MSC_GDPS_WindV_IsbL-0800_LatLon0.15_PT036H.grib2 2026-04-14 16:12 1.3M
20260414T12Z_MSC_GDPS_WindV_IsbL-0850_LatLon0.15_PT036H.grib2 2026-04-14 16:12 1.4M
20260414T12Z_MSC_GDPS_WindV_IsbL-0875_LatLon0.15_PT036H.grib2 2026-04-14 16:12 1.4M
20260414T12Z_MSC_GDPS_WindV_IsbL-0900_LatLon0.15_PT036H.grib2 2026-04-14 16:12 1.5M
20260414T12Z_MSC_GDPS_WindV_IsbL-0925_LatLon0.15_PT036H.grib2 2026-04-14 16:12 1.5M
20260414T12Z_MSC_GDPS_WindV_IsbL-0950_LatLon0.15_PT036H.grib2 2026-04-14 16:12 1.4M
20260414T12Z_MSC_GDPS_WindV_IsbL-0970_LatLon0.15_PT036H.grib2 2026-04-14 16:12 1.4M
20260414T12Z_MSC_GDPS_WindV_IsbL-0985_LatLon0.15_PT036H.grib2 2026-04-14 16:12 1.4M
20260414T12Z_MSC_GDPS_WindV_IsbL-1000_LatLon0.15_PT036H.grib2 2026-04-14 16:12 1.4M
20260414T12Z_MSC_GDPS_WindV_IsbL-1015_LatLon0.15_PT036H.grib2 2026-04-14 16:12 1.3M